RH
86 82 84 90 89 92 92 90 87 86 86 86 84 84 86 79 80 79 82 77 71 63 67 67 65 64 62 60 52 48 43 54 46 61 62 62 49 48 51 51 51 49 53
67 98 86 90 92 93 93 92 88 87 84 81 83 87 80 80 79 79 76 71 63 61 65 65 63 64 62 56 49 44 58 57 61 55 62 57 52 51 44 51 46 53 53
53 91 94 87 90 94 94 91 88 87 82 77 84 86 85 85 80 76 77 71 60 58 63 68 66 65 59 57 50 45 47 45 66 62 59 68 60 57 59 49 52 53 58
47 48 93 85 82 89 91 89 87 85 83 80 84 80 80 86 77 72 70 68 59 54 64 69 64 62 64 58 54 48 53 41 65 62 43 60 60 59 58 54 52 53 50
51 46 72 91 81 78 93 89 86 86 84 84 82 82 83 84 80 75 66 60 57 51 56 64 64 64 64 60 52 60 57 53 64 64 56 52 56 58 62 55 55 57 60
56 48 48 78 85 80 92 90 88 88 84 83 81 82 85 85 79 71 65 60 59 59 56 62 63 64 70 62 62 62 56 58 59 54 47 47 44 47 54 60 58 57 63
50 56 53 66 86 88 92 90 89 90 86 83 80 77 83 78 75 69 65 57 58 57 55 57 66 66 65 65 62 58 59 56 55 50 48 48 42 47 51 58 63 62 68
45 55 53 53 84 86 84 89 89 86 88 83 81 76 76 76 76 69 64 61 56 56 49 50 58 64 66 64 61 60 65 56 58 49 51 56 55 53 54 60 66 69 72
50 56 52 53 82 83 74 82 88 84 86 85 82 79 74 73 73 69 63 58 59 59 46 46 52 60 64 62 60 58 59 58 60 61 62 66 70 70 66 63 56 60 66
52 53 55 53 72 84 75 80 83 84 86 85 82 78 74 70 66 68 65 49 45 45 45 48 50 56 61 60 60 62 61 62 71 70 67 72 76 77 78 76 70 63 60
60 56 54 53 67 88 81 80 84 85 88 85 82 80 75 67 69 64 57 51 51 45 46 48 52 54 55 55 52 52 55 58 63 66 62 70 73 79 79 80 76 75 71
64 60 60 59 79 91 90 85 86 85 87 83 82 82 78 74 66 64 57 56 53 50 49 49 52 53 53 54 53 50 53 58 60 66 70 73 62 79 78 78 78 77 77
98 81 82 74 84 88 92 92 85 85 87 82 81 83 82 78 72 69 60 59 62 64 62 52 54 56 55 53 49 53 54 58 61 65 66 72 73 77 80 83 81 80 69
92 93 96 96 97 93 93 92 89 86 84 84 84 82 80 74 65 63 67 70 60 53 50 48 51 55 52 50 52 54 58 61 65 69 68 71 72 75 78 76 81 77 79
89 90 91 92 92 93 96 95 92 84 84 85 86 83 81 74 62 62 56 57 53 50 48 49 53 53 50 48 54 56 59 68 75 77 72 76 74 71 67 72 83 82 90
87 87 87 89 92 91 91 96 90 83 82 87 88 83 80 73 69 67 63 65 67 62 54 54 54 57 43 64 63 59 62 66 69 74 76 76 72 66 68 72 74 78 81
87 88 89 88 89 91 86 90 89 84 84 87 86 85 80 74 71 67 68 72 64 61 60 59 54 52 52 70 66 65 61 67 71 73 78 71 69 80 78 72 71 73 70
86 85 86 87 88 87 88 88 92 86 86 88 87 84 82 74 73 69 68 66 66 61 59 58 56 53 61 72 69 66 64 70 73 76 77 80 83 80 73 74 77 75 72
81 82 81 85 88 89 89 91 98 92 90 89 88 83 77 78 77 75 74 73 75 80 74 60 53 58 66 74 73 63 66 74 76 78 73 74 75 73 71 78 77 74 66
78 81 80 84 89 91 90 97 97 95 92 92 90 83 79 79 79 79 82 79 78 78 75 66 59 64 68 77 69 63 66 76 76 74 71 75 76 74 71 76 80 78 68
84 79 80 89 93 92 91 97 98 98 96 94 92 87 84 85 82 85 86 86 86 85 85 82 74 76 74 71 66 65 60 68 74 82 86 82 77 68 73 77 72 65 65
84 83 87 91 92 94 94 98 99 100 99 94 98 100 100 96 96 99 99 99 94 93 94 91 89 83 77 74 69 66 66 70 74 82 83 76 72 75 77 72 65 63 64
86 84 88 93 94 97 97 98 100 100 100 100 100 100 100 100 100 100 100 100 98 96 99 98 98 93 84 76 71 70 71 76 82 80 76 78 77 81 72 65 66 66 68
93 90 90 97 98 98 98 99 100 100 100 100 100 100 100 100 100 99 97 96 97 98 98 95 95 97 96 94 82 76 79 81 82 80 84 88 88 72 66 66 66 66 72
94 92 96 97 98 97 98 99 100 100 100 99 99 100 99 99 99 100 99 97 97 88 93 92 91 95 97 97 94 92 90 89 90 94 94 92 87 76 72 73 75 78 78
95 93 95 96 97 96 98 98 98 98 98 98 98 99 98 98 98 98 99 92 92 86 83 83 86 92 95 97 97 92 90 89 94 90 92 90 82 81 75 75 80 84 84
Wind_Speed
14 15 16 16 18 15 16 18 17 16 12 11 12 11 12 10 9 8 10 10 9 9 10 8 9 8 10 9 10 10 14 4 7 6 4 4 5 6 5 4 4 5 5
9 15 19 19 19 19 17 17 17 18 15 12 11 9 12 8 9 8 11 11 12 10 9 10 9 8 8 10 11 12 5 3 4 5 4 3 3 4 4 4 4 5 4
16 13 19 19 17 18 19 19 18 18 16 15 10 8 7 7 5 6 8 10 14 12 10 10 9 9 9 10 9 10 9 9 2 2 5 4 3 3 3 4 3 4 3
17 15 16 18 16 16 18 19 19 20 16 17 14 18 11 13 10 11 9 9 12 12 11 11 11 10 7 9 8 7 5 9 5 2 2 4 5 5 2 2 2 3 4
16 16 18 18 17 15 15 17 19 20 18 17 17 14 14 9 7 8 11 10 10 13 12 13 12 10 8 9 10 6 6 5 5 3 3 2 3 3 4 3 2 2 2
16 17 16 16 16 16 16 17 20 20 20 19 18 19 18 13 12 10 10 9 7 6 8 11 11 10 8 10 7 6 8 6 5 3 3 4 4 3 4 4 2 3 2
16 15 16 15 16 19 19 18 20 21 21 21 19 19 16 16 18 17 13 14 9 6 9 10 10 10 10 9 9 9 7 7 5 5 3 2 3 3 3 4 3 3 2
19 15 19 17 18 20 21 20 21 22 20 21 19 17 17 11 11 13 12 12 12 11 12 10 10 9 10 9 9 7 5 7 6 6 3 2 2 2 2 5 6 3 1
18 17 18 17 18 20 22 21 20 22 21 21 17 16 15 15 12 14 11 10 12 9 12 13 12 10 10 11 10 7 6 6 5 6 5 4 3 4 2 3 3 5 4
16 16 16 17 17 19 20 20 21 21 21 20 18 16 15 14 13 13 13 13 13 14 14 12 12 12 11 10 9 7 7 7 4 5 8 6 4 5 4 4 3 2 4
12 12 13 15 16 16 18 19 20 21 19 18 16 16 15 14 14 14 14 13 12 14 14 12 12 12 12 11 11 11 12 11 9 6 9 8 6 5 4 4 4 4 3
5 9 12 12 13 14 17 19 19 20 18 18 16 14 14 13 14 14 13 13 13 12 14 14 12 11 12 11 12 12 11 13 11 9 9 9 7 7 6 4 5 4 3
12 7 4 12 13 14 16 18 20 19 17 17 17 16 15 14 14 14 14 14 14 12 12 12 13 13 12 12 11 12 13 12 12 11 10 10 9 7 5 6 5 3 5
17 15 13 9 1 9 13 14 19 19 17 16 17 16 16 16 15 15 14 15 15 16 15 15 13 13 13 13 12 12 12 11 9 9 9 9 8 9 7 6 6 5 5
20 17 16 12 12 10 3 9 17 19 17 16 16 17 15 14 14 14 14 15 15 14 14 15 13 13 12 11 14 13 13 13 11 8 8 7 10 14 10 6 6 6 4
18 17 15 15 12 11 10 2 14 18 19 17 16 15 15 15 15 15 14 13 13 12 12 12 14 16 10 20 24 18 13 13 13 11 9 9 14 14 17 15 12 8 5
18 16 14 12 10 11 9 6 10 16 17 16 15 15 15 15 14 15 15 14 13 14 15 14 14 13 11 25 26 26 13 13 11 12 11 9 8 11 9 15 14 15 13
17 15 12 12 12 11 9 8 6 15 15 14 15 16 16 15 14 14 14 14 13 13 13 13 14 13 14 24 27 25 14 12 11 11 10 12 10 10 11 9 9 7 7
14 13 12 11 11 11 11 7 5 11 13 15 15 16 16 15 16 15 15 13 13 11 9 10 13 15 16 27 28 22 14 14 12 10 10 11 11 18 17 10 8 7 6
12 14 13 12 13 14 13 6 8 10 11 13 14 15 16 16 16 15 15 12 13 13 11 11 11 15 17 27 29 24 13 14 11 11 12 18 13 17 16 9 8 7 5
13 13 12 12 13 14 13 10 5 7 8 10 12 13 13 14 14 14 12 13 13 13 12 12 10 12 17 20 26 28 14 13 13 10 9 9 19 18 15 12 6 5 6
16 16 13 12 12 13 10 9 9 7 5 13 10 10 11 10 11 14 11 13 14 14 13 13 10 10 14 22 24 25 24 24 15 12 9 12 20 18 17 10 13 13 9
13 13 11 11 11 12 11 10 9 9 5 11 11 12 12 10 12 16 14 12 12 13 12 11 11 11 10 12 27 29 28 25 15 11 16 23 20 19 13 14 13 9 4
11 11 11 11 11 12 12 9 8 8 10 12 12 11 13 13 10 8 9 11 11 11 11 11 12 11 11 12 13 14 15 24 17 21 15 14 15 13 11 8 7 4 3
10 9 9 9 10 10 10 10 10 7 12 11 11 12 10 12 11 8 6 7 7 11 13 12 13 14 13 11 19 17 13 12 16 15 9 7 7 7 6 5 4 3 3
8 9 10 10 10 10 10 10 9 7 9 11 8 9 10 9 10 11 11 17 17 20 21 21 15 11 20 29 28 28 27 28 26 10 9 7 6 6 6 5 4 3 3
Wind_Direction
203 194 187 177 177 170 171 177 166 167 158 154 151 146 158 155 156 156 148 145 143 142 139 142 142 142 142 137 132 123 125 91 126 105 73 46 49 61 55 61 69 62 64
185 183 192 179 179 169 173 174 172 167 166 162 164 169 158 160 149 147 147 148 150 154 150 150 150 138 128 134 144 144 126 106 186 125 110 111 18 39 42 57 74 65 65
197 183 183 190 178 175 173 172 169 170 169 161 153 129 106 107 126 144 159 171 162 159 151 148 145 142 148 154 155 154 139 156 199 102 131 120 170 125 360 39 63 84 79
202 187 181 190 193 183 174 171 169 169 175 158 163 154 155 163 189 175 160 159 160 157 150 151 152 152 148 155 159 160 147 150 150 106 63 64 135 152 141 15 41 87 99
193 191 185 184 189 185 178 173 170 173 167 167 169 165 162 177 146 163 151 163 166 166 163 160 158 158 156 155 163 146 148 138 137 136 143 95 72 87 132 165 175 63 53
191 197 184 178 187 184 173 177 172 179 170 170 168 175 173 158 150 152 154 159 158 151 158 160 162 159 149 157 153 141 148 143 122 134 142 155 156 178 139 117 109 128 40
185 188 180 183 186 183 175 178 179 182 173 172 169 175 173 166 170 164 164 154 160 170 173 165 159 160 158 155 150 154 152 153 153 158 180 133 136 130 119 109 118 134 143
220 182 186 180 185 186 182 179 185 183 173 173 172 175 171 172 175 172 169 167 172 175 162 162 163 156 149 147 148 149 148 149 146 151 126 114 98 112 136 145 139 97 114
201 189 188 182 181 187 188 182 186 184 176 172 168 171 171 171 171 170 170 162 162 156 172 166 158 157 150 150 151 151 138 131 127 127 116 108 76 81 92 117 132 141 146
196 187 179 184 181 183 185 182 182 181 175 170 169 168 169 168 161 162 167 169 159 157 159 160 157 151 144 140 132 122 117 115 116 125 119 105 97 79 71 65 65 80 127
182 182 182 182 180 178 180 181 179 175 174 169 168 166 169 163 159 164 163 166 151 151 152 156 148 151 146 154 149 151 144 135 129 127 126 118 116 105 90 89 79 62 80
220 180 171 170 173 173 175 176 177 174 172 165 160 161 161 158 154 157 156 152 151 151 152 149 151 149 150 146 143 148 140 136 137 138 128 128 122 106 106 101 88 83 59
60 73 105 165 171 175 171 173 175 175 170 163 160 160 163 164 165 157 154 157 150 152 144 149 155 152 146 144 147 144 141 138 145 145 143 141 129 122 123 103 101 95 77
49 53 43 31 326 175 165 161 168 171 162 164 164 162 165 166 163 160 156 154 159 164 161 160 152 151 148 145 142 140 133 133 133 135 135 135 134 126 127 114 110 104 94
39 36 33 27 21 17 163 166 161 161 162 164 168 170 166 166 156 152 156 155 158 161 158 147 145 143 148 150 144 142 140 134 125 117 121 114 121 129 126 120 114 107 103
32 27 23 20 16 19 16 219 166 162 162 165 170 162 161 161 161 152 155 154 151 148 146 148 155 152 157 160 147 144 139 137 134 133 121 126 125 125 120 116 111 114 111
21 18 14 7 1 0 353 344 173 163 168 163 159 162 162 159 157 151 149 150 151 154 158 150 150 152 148 154 149 141 136 133 132 134 131 128 128 117 117 112 103 89 89
10 6 359 354 359 346 350 324 190 167 162 161 160 158 161 155 150 152 151 149 153 161 157 155 152 149 150 152 147 135 127 121 122 127 131 125 118 114 109 111 92 89 84
357 353 350 349 349 352 336 310 190 157 154 159 159 156 158 152 149 154 152 150 145 141 139 150 151 151 152 154 145 130 124 122 119 117 120 124 124 133 125 116 118 95 81
356 349 350 354 357 350 339 266 154 145 159 158 159 156 156 154 157 152 154 154 149 145 143 146 156 155 151 152 146 131 131 127 125 122 126 129 131 129 134 128 124 123 112
349 358 7 6 353 349 347 22 110 131 141 139 146 151 151 151 146 141 141 135 135 131 134 138 146 144 149 150 147 137 138 136 131 130 133 129 131 132 130 117 120 132 116
358 2 4 1 357 0 0 30 26 330 177 135 132 127 132 134 136 132 129 132 134 132 134 130 131 138 140 145 147 140 136 139 130 132 128 132 136 132 123 123 122 117 108
359 357 358 358 3 6 13 23 5 7 58 108 115 114 111 119 131 131 133 132 134 136 137 139 138 138 141 140 145 135 139 133 119 128 134 133 134 126 118 120 113 105 95
360 351 358 8 12 6 11 26 12 45 61 89 97 105 113 110 108 116 135 136 141 142 142 142 142 140 140 141 140 136 131 127 116 129 126 125 117 117 116 105 95 91 106
356 357 7 9 11 15 18 13 18 57 80 79 89 96 99 104 103 91 110 131 130 148 147 149 146 146 146 147 139 134 129 128 126 122 112 114 108 114 113 101 92 99 80
353 10 16 19 14 24 31 25 25 47 87 88 89 102 101 100 102 106 101 98 114 128 130 133 133 129 129 134 129 128 130 134 133 122 125 122 127 131 134 123 113 77 87